Content
SEND FEEDBACK

Daily
Averages
Monthly
Summary
United States of America

TUCSON, ARIZONA


Home > North America > United States > Arizona
Elevation: 2584 feet     Latitude: 32 08N     Longitude: 110 56W

WEATHER
 
SELECT A DAY
Number of Records: 108,982;   Date Range: 1/1/02 - 9/30/14
 
SHARE

PRINT THIS DATA

[ ← Previous Day ]
WEATHER ALMANAC - JANUARY 24, 2013
[ Next Day → ]
[ °C ]   °F
Weather ElementAverageHighLow
Temperature60 °F64 °F (9:53 am)57 °F (3:53 am)
Dewpoint43.1 °F51.1 °F (9:53 pm)33.1 °F (1:53 am)
Humidity55.3 %81 % (10:53 pm)34 % (9:53 am)
Barometer30.16 in30.22 in (10:53 am)30.12 in (3:53 am)
Wind Speed4.7 mph9.2 mph (3:53 pm)
Weather ElementAverage
Visibility10 mi
Wind DirectionSSE (165.7 °)

Weather ElementTotal
Precipitation0.01 in
Heating Degree Days4.5 (Base 65)
Growing Degree Days10.5 (Base 50)
Averaged from 23 records on January 24, 2013
WEATHER CONDITIONS BREAKOUT
WIND DIRECTION BREAKOUT
WEATHER BY HOUR - JANUARY 24, 2013
[ °C ]   °F
Local TimeTemperatureDewpointHumidityBarometerVisibilityWind DirectionWind SpeedGust SpeedPrecipitationEventsConditions
1:53 AM59.0 °F33.1 °F38 %30.13 in10.0 miSE (130°)4.6 mphClear
2:53 AM57.9 °F33.1 °F39 %30.13 in10.0 miSouth (190°)3.5 mphClear
3:53 AM57.0 °F34.0 °F42 %30.12 in10.0 miSSE (160°)4.6 mphClear
4:53 AM57.0 °F34.0 °F42 %30.12 in10.0 miSE (140°)4.6 mphClear
5:53 AM57.0 °F34.0 °F42 %30.12 in10.0 miSE (140°)5.8 mphClear
6:53 AM57.9 °F34.0 °F41 %30.14 in10.0 miSE (130°)8.1 mphClear
7:53 AM57.9 °F35.1 °F42 %30.16 in10.0 miSSE (160°)6.9 mphClear
8:53 AM61.0 °F35.1 °F38 %30.17 in10.0 miNorth (360°)3.5 mphMostly Cloudy
9:53 AM64.0 °F35.1 °F34 %30.18 in10.0 miSSE (150°)4.6 mphOvercast
10:53 AM60.1 °F45.0 °F57 %30.22 in10.0 miWest (260°)5.8 mph0.00 inRainLight Rain
11:53 AM60.1 °F48.9 °F67 %30.21 in10.0 miESE (110°)3.5 mph0.01 inRainLight Rain
12:53 PM62.1 °F48.9 °F62 %30.17 in10.0 miENE (70°)4.6 mph0.00 inOvercast
1:53 PM63.0 °F46.9 °F56 %30.13 in10.0 miEast (100°)6.9 mph0.00 inMostly Cloudy
2:53 PM64.0 °F46.9 °F54 %30.13 in10.0 miSW (220°)3.5 mphOvercast
3:53 PM63.0 °F48.0 °F58 %30.15 in10.0 miWSW (250°)9.2 mphOvercast
4:53 PM64.0 °F48.0 °F56 %30.14 in10.0 miNorth (360°)5.8 mphOvercast
5:53 PM62.1 °F50.0 °F65 %30.15 in10.0 miNorth (350°)9.2 mphMostly Cloudy
6:53 PM62.1 °F48.0 °F60 %30.17 in10.0 miCalmMostly Cloudy
7:53 PM60.1 °F48.9 °F67 %30.17 in10.0 miSSW (200°)3.5 mphOvercast
8:53 PM59.0 °F50.0 °F72 %30.17 in10.0 miCalmOvercast
9:53 PM57.9 °F51.1 °F78 %30.18 in10.0 miCalmOvercast
10:53 PM57.0 °F51.1 °F81 %30.18 in10.0 miSSE (150°)3.5 mphOvercast
11:53 PM57.0 °F51.1 °F81 %30.16 in10.0 miSouth (180°)5.8 mphPartly Cloudy
Hourly data recorded from KTUS, located miles away from Tucson, Arizona







STORIES FROM OUR PARTNERS